EW2310 Weather Reports


Display with metric or nautical units.
time (UTC)temp
F
wind
direction
speed
MPH
gust
MPH
rain 1hr
in
rain 24hr
in
rain mn
in
humidity
%
barometer
mb
20260504190543 62 167 3.0 5.0 0.00 0.00 0.00 78 1016.8
20260504190046 62 167 1.0 4.0 0.00 0.00 0.00 78 1016.8
20260504185543 62 167 3.0 5.0 0.00 0.00 0.00 78 1016.7
20260504185043 62 167 3.0 5.0 0.00 0.00 0.00 78 1016.7
20260504184543 62 167 4.0 5.0 0.00 0.00 0.00 79 1016.7
20260504184046 62 167 3.0 4.0 0.00 0.00 0.00 78 1016.7
20260504183543 62 167 1.0 4.0 0.00 0.00 0.00 78 1016.7
20260504183046 62 167 3.0 5.0 0.00 0.00 0.00 78 1016.6
20260504182543 62 167 1.0 5.0 0.00 0.00 0.00 78 1016.6
20260504182043 62 175 1.0 5.0 0.00 0.00 0.00 78 1016.5
20260504181543 62 163 2.0 5.0 0.00 0.00 0.00 78 1016.5
20260504181043 62 152 2.0 5.0 0.00 0.00 0.00 78 1016.5
20260504180546 62 159 2.0 6.0 0.00 0.00 0.00 78 1016.4
20260504180043 62 161 2.0 7.0 0.00 0.00 0.00 78 1016.5
20260504175546 62 185 2.0 8.0 0.00 0.00 0.00 77 1016.6
20260504175043 62 157 6.0 7.0 0.00 0.00 0.00 77 1016.6
20260504174543 62 163 5.0 7.0 0.00 0.00 0.00 77 1016.7
20260504174043 62 165 4.0 8.0 0.00 0.00 0.00 76 1016.6
20260504173543 63 174 6.0 9.0 0.00 0.00 0.00 76 1016.6
20260504173043 63 171 4.0 7.0 0.00 0.00 0.00 76 1016.5
20260504172543 63 177 2.0 9.0 0.00 0.00 0.00 76 1016.6
20260504172043 63 200 2.0 9.0 0.00 0.00 0.00 76 1016.5
20260504171543 63 172 2.0 9.0 0.00 0.00 0.00 76 1016.5
20260504171043 63 144 6.0 10.0 0.00 0.00 0.00 76 1016.6
20260504170546 63 169 7.0 9.0 0.00 0.00 0.00 75 1016.5
20260504151043 64 193 5.0 10.0 0.00 0.00 0.00 71 1016.7
20260504150543 64 160 6.0 11.0 0.00 0.00 0.00 74 1016.7
20260504141046 64 200 2.0 10.0 0.00 0.00 0.00 69 1017.0
20260504140543 65 213 3.0 10.0 0.00 0.00 0.00 71 1017.0
20260504130543 65 165 9.0 12.0 0.00 0.00 0.00 66 1017.5
20260504110546 66 180 6.0 11.0 0.00 0.00 0.00 58 1018.2
20260504100543 68 180 3.0 8.0 0.00 0.00 0.00 58 1018.4
20260504081543 65 108 1.0 10.0 0.00 0.00 0.00 68 1018.6
20260504081046 65 163 5.0 8.0 0.00 0.00 0.00 69 1018.6
20260504080543 64 158 6.0 11.0 0.00 0.00 0.00 69 1018.7
20260504050543 58 74 3.0 4.0 0.00 0.00 0.00 78 1017.5
20260504045546 57 11 3.0 3.0 0.00 0.00 0.00 78 1017.6
20260504045046 57 11 1.0 2.0 0.00 0.00 0.00 79 1017.6
20260504044543 56 11 1.0 1.0 0.00 0.00 0.00 80 1017.6
20260504044043 55 11 0.0 2.0 0.00 0.00 0.00 80 1017.5
20260504043543 55 11 0.0 2.0 0.00 0.00 0.00 80 1017.5
20260504043046 55 11 2.0 3.0 0.00 0.00 0.00 80 1017.5
20260504042543 54 11 0.0 2.0 0.00 0.00 0.00 81 1017.4
20260504042043 54 11 0.0 1.0 0.00 0.00 0.00 81 1017.4
20260504041543 54 11 0.0 1.0 0.00 0.00 0.00 80 1017.4
20260504041043 54 11 1.0 2.0 0.00 0.00 0.00 80 1017.4
20260504040543 54 11 0.0 1.0 0.00 0.00 0.00 80 1017.4
20260504040043 54 11 0.0 2.0 0.00 0.00 0.00 80 1017.4
20260504035546 54 11 0.0 3.0 0.00 0.00 0.00 80 1017.4
20260504035043 54 11 2.0 3.0 0.00 0.00 0.00 80 1017.4
20260504034546 54 11 1.0 3.0 0.00 0.00 0.00 80 1017.4
20260504034043 54 11 1.0 3.0 0.00 0.00 0.00 80 1017.4
20260504033546 54 317 1.0 3.0 0.00 0.00 0.00 81 1017.3
20260504033043 55 316 1.0 3.0 0.00 0.00 0.00 82 1017.4
20260504032546 55 316 2.0 2.0 0.00 0.00 0.00 83 1017.4
20260504032043 55 316 0.0 2.0 0.00 0.00 0.00 83 1017.4
20260504031543 55 316 1.0 2.0 0.00 0.00 0.00 83 1017.4
20260504031043 56 316 0.0 2.0 0.00 0.00 0.00 82 1017.4
20260504030543 56 316 1.0 1.0 0.00 0.00 0.00 82 1017.3
20260504030043 56 316 0.0 0.0 0.00 0.00 0.00 82 1017.4
20260504025546 56 316 0.0 0.0 0.00 0.00 0.00 82 1017.3
20260504025043 56 316 0.0 1.0 0.00 0.00 0.00 81 1017.4
20260504024546 57 316 0.0 1.0 0.00 0.00 0.00 81 1017.3
20260504024043 57 316 0.0 1.0 0.00 0.00 0.00 82 1017.4
20260504023543 57 316 0.0 0.0 0.00 0.00 0.00 82 1017.3
20260504023043 57 316 0.0 0.0 0.00 0.00 0.00 82 1017.4
20260504022543 57 316 0.0 0.0 0.00 0.00 0.00 81 1017.3
20260504022043 57 316 0.0 0.0 0.00 0.00 0.00 81 1017.3
20260504021543 57 316 0.0 0.0 0.00 0.00 0.00 81 1017.3
20260504021044 58 316 0.0 0.0 0.00 0.00 0.00 81 1017.3
20260504020543 58 316 0.0 0.0 0.00 0.00 0.00 81 1017.3
20260504020044 58 316 0.0 0.0 0.00 0.00 0.00 81 1017.3
20260504015543 58 316 0.0 0.0 0.00 0.00 0.00 81 1017.4
20260504015043 58 316 0.0 0.0 0.00 0.00 0.00 81 1017.4
20260504014543 58 316 0.0 0.0 0.00 0.00 0.00 80 1017.4
20260504014046 58 316 0.0 0.0 0.00 0.00 0.00 80 1017.3
20260504013543 58 316 0.0 0.0 0.00 0.00 0.00 80 1017.4
20260504013043 58 316 0.0 2.0 0.00 0.00 0.00 81 1017.3
20260504012543 58 316 1.0 2.0 0.00 0.00 0.00 82 1017.3
20260504012043 57 316 0.0 0.0 0.00 0.00 0.00 82 1017.3
20260504011546 57 316 0.0 0.0 0.00 0.00 0.00 81 1017.3
20260504011043 57 316 0.0 0.0 0.00 0.00 0.00 81 1017.4
20260504010543 57 316 0.0 0.0 0.00 0.00 0.00 81 1017.4
20260504010043 57 316 0.0 0.0 0.00 0.00 0.00 81 1017.4
20260504005543 58 316 0.0 0.0 0.00 0.00 0.00 80 1017.4
20260504005043 58 316 0.0 0.0 0.00 0.00 0.00 80 1017.5
20260504004543 58 316 0.0 0.0 0.00 0.00 0.00 80 1017.5
20260504004043 58 316 0.0 0.0 0.00 0.00 0.00 80 1017.4
20260504003543 58 316 0.0 0.0 0.00 0.00 0.00 80 1017.5
20260504003046 58 316 0.0 0.0 0.00 0.00 0.00 80 1017.5
20260504002546 58 316 0.0 0.0 0.00 0.00 0.00 80 1017.4
20260504002043 58 316 0.0 0.0 0.00 0.00 0.00 79 1017.4
20260504001546 58 316 0.0 2.0 0.00 0.00 0.00 80 1017.4
20260504001046 58 316 1.0 2.0 0.00 0.00 0.00 80 1017.4
20260504000546 58 316 0.0 3.0 0.00 0.00 0.00 79 1017.4
20260504000043 59 316 0.0 2.0 0.00 0.00 0.00 79 1017.4
20260503235543 59 316 0.0 2.0 0.00 0.00 0.00 79 1017.5
20260503235043 59 316 1.0 4.0 0.00 0.00 0.00 79 1017.5
20260503234543 59 309 3.0 3.0 0.00 0.00 0.00 79 1017.6
20260503234043 59 309 0.0 3.0 0.00 0.00 0.00 79 1017.7
20260503233543 59 309 1.0 3.0 0.00 0.00 0.00 79 1017.7
20260503233043 59 309 2.0 3.0 0.00 0.00 0.00 79 1017.8
20260503232543 59 309 0.0 1.0 0.00 0.00 0.00 79 1017.9
20260503232043 59 309 0.0 1.0 0.00 0.00 0.00 79 1018.0
20260503231546 59 309 0.0 1.0 0.00 0.00 0.00 79 1018.1
20260503231043 59 309 0.0 0.0 0.00 0.00 0.00 79 1018.1
20260503230543 59 309 0.0 1.0 0.00 0.00 0.00 79 1018.1
20260503230043 59 309 0.0 0.0 0.00 0.00 0.00 79 1018.1
20260503225543 59 309 0.0 0.0 0.00 0.00 0.00 79 1018.1
20260503225043 59 309 0.0 0.0 0.00 0.00 0.00 78 1018.2
20260503224543 59 309 0.0 1.0 0.00 0.00 0.00 78 1018.3
20260503224043 59 309 0.0 0.0 0.00 0.00 0.00 78 1018.3
20260503223543 59 309 0.0 1.0 0.00 0.00 0.00 78 1018.3
20260503223046 59 309 0.0 0.0 0.00 0.00 0.00 78 1018.4
20260503222546 59 309 0.0 1.0 0.00 0.00 0.00 78 1018.3
20260503222043 59 309 1.0 1.0 0.00 0.00 0.00 78 1018.4
20260503221543 59 309 0.0 1.0 0.00 0.00 0.00 78 1018.4
20260503221043 60 309 0.0 0.0 0.00 0.00 0.00 78 1018.4
20260503220543 60 309 0.0 0.0 0.00 0.00 0.00 78 1018.4
20260503220043 60 309 0.0 2.0 0.00 0.00 0.00 78 1018.3
20260503215543 60 309 0.0 3.0 0.00 0.00 0.00 78 1018.3
20260503215043 60 309 3.0 3.0 0.00 0.00 0.00 77 1018.2
20260503214543 60 308 2.0 3.0 0.00 0.00 0.00 76 1018.3
20260503214046 61 308 0.0 1.0 0.00 0.00 0.00 76 1018.2
20260503213543 61 308 1.0 2.0 0.00 0.00 0.00 76 1018.2
20260503213043 61 308 2.0 2.0 0.00 0.00 0.00 76 1018.1
20260503212543 61 308 1.0 3.0 0.00 0.00 0.00 76 1018.1
20260503212043 61 308 0.0 2.0 0.00 0.00 0.00 76 1018.1
20260503211543 61 308 0.0 3.0 0.00 0.00 0.00 75 1018.1
20260503211043 61 308 0.0 2.0 0.00 0.00 0.00 75 1018.1
20260503210543 61 308 2.0 3.0 0.00 0.00 0.00 75 1018.1
20260503210043 61 307 0.0 1.0 0.00 0.00 0.00 75 1018.2
20260503205543 61 307 0.0 3.0 0.00 0.00 0.00 75 1018.2
20260503205043 61 307 3.0 3.0 0.00 0.00 0.00 76 1018.1
20260503204543 61 304 0.0 3.0 0.00 0.00 0.00 75 1018.1
20260503204043 61 290 0.0 2.0 0.00 0.00 0.00 76 1018.1
20260503203543 61 288 0.0 3.0 0.00 0.00 0.00 76 1018.1
20260503203046 61 273 0.0 2.0 0.00 0.00 0.00 75 1018.1
20260503202543 61 277 1.0 1.0 0.00 0.00 0.00 75 1018.2
20260503202043 61 270 1.0 2.0 0.00 0.00 0.00 75 1018.1
20260503201543 61 270 1.0 3.0 0.00 0.00 0.00 75 1018.1
20260503201043 61 290 0.0 1.0 0.00 0.00 0.00 75 1018.1
20260503200543 62 290 1.0 2.0 0.00 0.00 0.00 75 1018.1
20260503200043 61 290 1.0 2.0 0.00 0.00 0.00 75 1018.0
20260503195543 62 293 0.0 2.0 0.00 0.00 0.00 74 1018.0
20260503195043 62 292 0.0 3.0 0.00 0.00 0.00 74 1018.0
20260503194543 62 309 0.0 2.0 0.00 0.00 0.00 74 1017.9
20260503194043 62 309 0.0 1.0 0.00 0.00 0.00 74 1017.9
20260503193543 62 309 0.0 2.0 0.00 0.00 0.00 74 1017.9
20260503193043 62 312 0.0 2.0 0.00 0.00 0.00 74 1017.8
20260503192543 62 315 0.0 3.0 0.00 0.00 0.00 74 1017.8
20260503192043 62 315 2.0 2.0 0.00 0.00 0.00 74 1017.7
20260503191546 62 308 0.0 1.0 0.00 0.00 0.00 74 1017.7
20260503191043 62 308 0.0 2.0 0.00 0.00 0.00 74 1017.7